Starlink 6346

operational
NORAD ID: 57243 Int'l Des: 2023-094 Owner: SPXS Country: US Constellation: starlink
LEOCIRCULAR

关于 Starlink 6346

正在加载描述...

实时位置

正在加载3D地球...

即将过境

高度历史

Altitude vs Time

uPlot chart will show altitude changes over time

两行轨道根数

1 57243U 23094AB 25260.44420167 .00000241 00000-0 32944-4 0 9995
2 57243 43.0036 239.1837 0001213 273.4899 86.5805 15.02534074121200
Epoch: Sep 17, 2025 • Age: 36 hours

当前状态

高度 567.9 km
速度 7.58 km/s
星下点 -33.47°S, 115.78°E
发射日期 Jul 7, 2023
运行时间 2.2 years
类型 internet

技术详情

分类 Payload
质量 305.00 kg
干质量 290.00 kg
总质量 305.00 kg
长度 0.20 m
直径 2.80 m
跨度 9.00 m
形状 Box + pan
制造商 SPXS
平台类型 Starlink
阶段状态 In Orbit
所有者/国家 SPXS/US

大型星座

Loading constellations...